Location: ČR
(50.0000°N, 15.0000°E)
Time: 14:40:38
(UTC+00:00)

Explorer 11/Cluster Stage 4 - All Passes

Search period start: 25 October 2021 00:00
Search period end: 04 November 2021 00:00
Orbit: 467 x 1256 km, 28.8° (Epoch: 24 October)

Date Brightness Start Highest point End Pass type
(mag) Time Alt. Az. Time Alt. Az. Time Alt. Az.
25 Oct - 20:02:43 10° SSW 20:05:56 13° S 20:09:19 10° SSE visible
25 Oct - 21:50:56 10° SSW 21:53:30 12° SSW 21:56:08 10° S night (unlit)
26 Oct - 19:51:33 10° SSW 19:54:26 13° S 19:57:29 10° SSE visible
26 Oct - 21:40:26 10° SSW 21:41:58 11° SSW 21:43:33 10° S night (unlit)
27 Oct - 19:40:30 10° SSW 19:42:56 12° S 19:45:30 10° SSE visible
28 Oct - 19:29:42 10° SSW 19:31:29 11° S 19:33:18 10° SSE visible
